Погода в Дивеево

Россия / Нижегородская область     55°02′12″N   43°14′48″E
темп.,
°C
ветер,
м/с
пор.,
м/с
влажн.,
%
обл.,
%
осадки,
мм/ч
давл.,
гПа
погр.,
м
19 апреля, пн
пн1900:00+5всв4988100 0.0 1022337
03:00+4всв51189100 0.0 1023403
06:00+4всв6137973 0.0 1022454
09:00+6всв7126299 0.0 1023647
12:00+9в81054100 0.0 10231196
15:00+9в8104548 0.0 10231460
18:00+7в61051100 0.0 10241262
21:00+5всв71361100 0.0 1024762
20 апреля, вт
вт2000:00+4в61269100 0.0 1024811
03:00+3в61374100 0.0 1024647
06:00+3в61373100 0.0 1024751
09:00+3вюв71480100 0.0 1024753
12:00+5вюв7146699 0.0 1023883
15:00+9вюв61458100 0.0 10211287
18:00+8вюв81558100 0.0 10191193
21:00+7вюв91855100 0.0 10161235
21 апреля, ср
ср2100:00+5вюв112280100 3.4 10121058
03:00+4юв102086100 6.8 10101145
06:00+5юв102087100 0.5 10071033
09:00+6юв101988100 1.2 10071222
12:00+8ююв101789100 0.9 10071235
15:00+9ююз81276100 1.4 10101251
18:00+6ююз61183100 0.1 10131169
21:00+5ююз51184100 0.2 1016808
22 апреля, чт
чт2200:00+5ю388543 0.0 1017286
03:00+4ю2589100 0.0 101896
06:00+5ююв4109042 0.5 1018360
09:00+10ююз58676 0.5 1019975
12:00+13юз57515 0.0 10191430
15:00+14юз5749100 0.0 10192143
18:00+11ююз276712 0.0 1020252
21:00+8ю227512 0.0 102220
23 апреля, пт
пт2300:00+7ю227245 0.0 102218
03:00+7ююв227572 0.0 102114
06:00+8ююв237792 0.0 102265
09:00+12ююв365974 0.0 1021357
12:00+15юв444194 0.0 10202241
15:00+16ю233729 0.0 10192212
18:00+14ююв485798 0.0 1018348
21:00+11юв4970100 0.0 1017299